Location: Bishop�s Knoyle
(51.0728°N, 2.1714°W)
Time: 10:30:21
(UTC+00:00)

NOSS 3-4 (C) - Visible Passes

Search period start: 17 January 2021 00:00
Search period end: 27 January 2021 00:00
Orbit: 879 x 1333 km, 63.4° (Epoch: 31 December)

Date Brightness Start Highest point End Pass type
(mag) Time Alt. Az. Time Alt. Az. Time Alt. Az.
17 Jan 4.0 18:18:54 10° WSW 18:24:45 54° NW 18:29:37 17° NE visible
17 Jan 4.9 20:11:40 10° WNW 20:17:02 29° N 20:17:03 29° N visible
17 Jan 6.2 22:03:53 10° NW 22:04:30 13° NW 22:04:30 13° NW visible
18 Jan 3.6 17:33:53 10° SW 17:39:48 73° NW 17:46:16 10° NE visible
18 Jan 4.7 19:26:17 10° WNW 19:31:44 32° NNW 19:33:48 27° NNE visible
18 Jan 5.6 21:18:52 10° NW 21:21:14 20° NNW 21:21:14 20° NNW visible
19 Jan 4.5 18:40:54 10° W 18:46:31 37° NNW 18:50:32 19° NNE visible
19 Jan 5.1 20:33:44 10° NW 20:37:59 27° NNW 20:37:59 27° NNW visible
19 Jan 6.3 22:25:20 10° NW 22:25:25 10° NW 22:25:25 10° NW visible
20 Jan 4.2 17:55:37 10° WSW 18:01:23 46° NNW 18:07:14 12° NE visible
20 Jan 4.8 19:48:28 10° WNW 19:53:50 28° N 19:54:42 28° N visible
20 Jan 5.8 21:40:28 10° NW 21:42:08 18° NW 21:42:08 18° NW visible
21 Jan 3.9 17:10:29 10° WSW 17:16:21 61° NW 17:22:48 10° NE visible
21 Jan 4.8 19:03:07 10° WNW 19:08:31 30° N 19:11:24 22° NNE visible
21 Jan 5.3 20:55:31 10° NW 20:58:50 25° NNW 20:58:50 25° NNW visible
22 Jan 4.6 18:17:44 10° W 18:23:15 34° NNW 18:28:06 15° NE visible
22 Jan 4.9 20:10:27 10° NW 20:15:32 29° N 20:15:32 29° N visible
22 Jan 6.0 22:01:50 10° NW 22:02:59 16° NW 22:02:59 16° NW visible
23 Jan 4.4 17:32:23 10° W 17:38:03 40° NNW 17:44:15 10° NE visible
23 Jan 4.8 19:25:15 10° WNW 19:30:39 28° N 19:32:14 26° NNE visible
23 Jan 5.4 21:17:00 10° NW 21:19:41 24° NNW 21:19:41 24° NNW visible
24 Jan 4.8 18:39:56 10° WNW 18:45:19 29° N 18:48:56 18° NE visible
24 Jan 4.9 20:32:06 10° NW 20:36:23 31° N 20:36:23 31° N visible
24 Jan 6.1 22:23:06 10° NW 22:23:50 14° NW 22:23:50 14° NW visible
25 Jan 4.7 17:54:34 10° WNW 18:00:00 31° NNW 18:05:39 11° NE visible
25 Jan 4.7 19:47:07 10° NW 19:52:47 31° NNE 19:53:06 31° NNE visible
25 Jan 5.6 21:38:18 10° NW 21:40:32 23° NW 21:40:32 23° NW visible
26 Jan 4.8 19:01:59 10° NW 19:07:27 29° N 19:09:49 24° NE visible
26 Jan 4.9 20:53:30 10° NW 20:57:16 33° NNW 20:57:16 33° NNW visible
26 Jan 6.3 22:44:24 10° NW 22:44:42 11° NW 22:44:42 11° NW visible
